Uitslag Triatlon Roeselare top 3

Kraftman Chrono Timing
# Naam Totaal
1 Priem Whytic 00:59:05 90.46
2 Allegaert Matthias 00:59:59 88.48
3 Van De Walle Vincent 01:01:02 87.57
4 Vankelecom Jeroen 01:04:32 84.55
5 De Waele Bert 01:04:44 84.37
6 De Groeve Tanguy 01:05:17 83.90
7 Beernaert Jochen 01:05:36 83.63
8 Labeeuw Tijl 01:06:04 83.22
9 Veranneman Tom 01:06:47 82.60
10 Van Haverbeke Arno 01:06:55 82.49
11 Devloo Dries 01:06:57 82.46
12 Vercaigne Dieter 01:07:12 82.24
13 Desmet Lieven 01:07:14 82.21
14 Vermeulen Nicolaas 01:07:15 82.20
15 Defauw lieven 01:07:20 82.13
16 Bonnaerens Kevin 01:07:26 82.04
17 Vermont Bert 01:07:45 81.77
18 Roelandts Geert 01:08:25 81.19
19 Labaere Brian 01:08:33 81.07
20 Pype Bene 01:08:48 80.86
21 Salomez Carl 01:09:03 80.64
22 De Groof Pieter 01:09:05 80.61
23 Ranson Bruno 01:09:07 80.58
24 De Moor Joachim 01:09:18 80.43
25 Warnez Wouter 01:09:24 80.34
26 Demares Ben 01:09:34 80.20
27 Witdouck Kobe 01:09:39 80.12
28 Matton Tom 01:10:03 79.78
29 Kimpe Kim 01:10:10 79.68
30 Vandeghinste Robbe 01:10:13 79.63
31 Hallewaert Steven 01:10:17 79.58
32 Vanhee Anton 01:10:17 79.58
33 Decoene Thomas 01:10:25 79.46
34 Feryn Dries 01:10:26 79.45
35 Cassaert Brecht 01:10:37 79.29
36 Tempelaere Brecht 01:10:37 79.29
37 Knockaert Korneel 01:10:45 79.17
38 Vermont Lies 01:10:54 78.26
39 Vanhove Frank 01:10:55 79.03
40 Blontia Nico 01:10:57 79.00
41 Clauwaert Gilles 01:10:59 78.97
42 Vandeputte Joost 01:11:31 78.51
43 Coelembier Dieter 01:11:42 78.35
44 Deparcq Pieter 01:11:51 78.22
45 Mussche Peter 01:11:57 78.13
46 Decroix Nick 01:12:01 78.08
47 Vanholme Bjorn 01:12:23 77.76
48 Grimonprez Arne 01:12:28 77.69
49 Demasure Woud 01:12:31 77.64
50 Astaes Marie 01:12:39 75.90
51 Decoene Sam 01:12:42 77.49
52 Simoens Tom 01:12:47 77.41
53 Dousy Frederik 01:12:48 77.40
54 Verbanck Thomas 01:12:50 77.37
55 Cuvelier Dieter 01:12:51 77.36
56 Secember Bjorn 01:12:53 77.33
57 Verbiest Liesbeth 01:12:55 75.72
58 Ver Elst Nele 01:13:06 75.60
59 Wenes Wouter 01:13:25 76.87
60 Bruneel Kennith 01:13:28 76.82
61 vandecasteele Aurelio 01:14:01 76.35
62 Clauw Björn 01:14:05 76.29
63 De Witte Stijn 01:14:07 76.26
64 Borny Dimitri 01:14:13 76.17
65 Lagacie Pieter 01:14:27 75.97
66 Lyphout Bart 01:14:52 75.61
67 Dewyspelaere Michiel 01:14:59 75.51
68 Waeyaert Dieter 01:14:59 75.51
69 Bolle Maarten 01:15:01 75.48
70 Huysentruyt Jan 01:15:10 75.35
71 Vandenberghe Arne 01:15:14 75.30
72 Soenen Alexander 01:15:17 75.25
73 Garsbeke Jurgen 01:15:19 75.22
74 Esprit Pieter 01:15:20 75.21
75 Lenoir Kenny 01:15:20 75.21
76 Braet David 01:15:30 75.06
77 Rommelaere Joris 01:15:32 75.04
78 Gruyaert Emmerson 01:15:55 74.70
79 Vereenooghe Oskar 01:15:56 74.69
80 Denolf Thibault 01:15:59 74.65
81 Velghe Jonas 01:15:59 74.65
82 Vynckier Elke 01:16:02 73.65
83 Vandevelde Marlies 01:16:15 73.50
84 Leclercq Frederic 01:16:25 74.27
85 Coen Ivan 01:16:37 74.10
86 Desmet Thijs 01:16:37 74.10
87 Depoortere Marie 01:16:40 73.23
88 Vansteenkiste Stephan 01:16:48 73.94
89 Feys Bert 01:16:52 73.88
90 Janssens Bruno 01:16:57 73.81
91 Geirnaert Bram 01:16:58 73.80
92 Van Craen Tom 01:17:00 73.77
93 Byltiauw Matthias 01:17:11 73.61
94 Bogaert Tybo 01:17:11 73.61
95 De Bruyne Bass 01:17:27 73.38
96 Adam Niels 01:17:28 73.36
97 Planckaert Nico 01:17:30 73.34
98 De Witte Michiel 01:17:31 73.32
99 Storme Anke 01:17:40 72.56
100 VANLERBERGHE Achly 01:17:41 73.18
101 Bisschop Jella 01:17:48 72.47
102 Dejaiffe Stephane 01:17:50 73.05
103 Lesage Wim 01:17:56 72.96
104 Godderis Luc 01:18:05 72.83
105 Ghekiere Karel 01:18:07 72.80
106 Declerck Sofie 01:18:13 72.19
107 Lapere Bram 01:18:15 72.69
108 Cordier Ludovic 01:18:25 72.54
109 Tack Emelie 01:18:28 72.03
110 Lemaire Thomas 01:18:36 72.38
111 Derycke Kenneth 01:18:36 72.38
112 Maeseele Guy-Luc 01:18:37 72.38
113 Verva Joeri 01:18:40 72.34
114 Deconinck Jozefien 01:18:59 71.68
115 Dendooven Matthias 01:19:05 71.98
116 Vermeersch Thomas 01:19:07 71.95
117 Lietaert Daan 01:19:08 71.94
118 Cloet Pieter 01:19:08 71.94
119 Dhaenens Marijn 01:19:09 71.92
120 Louwagie Nele 01:19:12 71.54
121 Legrand-Dejonckere Jurgen 01:19:25 71.69
122 Haspeslagh William 01:19:27 71.66
123 Geuns Justine 01:19:34 71.30
124 Eeckhout Hans 01:19:38 71.50
125 Haspeslagh Quinten 01:19:40 71.48
126 Deman Nel 01:19:41 71.22
127 Vanacker Björn 01:19:44 71.42
128 Dutry Milan 01:19:44 71.42
129 Ghyselen Pieter-jan 01:19:48 71.36
130 Coysman Ulrike 01:19:52 71.10
131 De Craemere Dieter 01:20:01 71.17
132 Blomme Jef 01:20:05 71.11
133 Vervenne Charlotte 01:20:10 70.90
134 Jacobs Philippe 01:20:12 71.01
135 Segaert Mathias 01:20:19 70.91
136 Van Hellemont Peter 01:20:25 70.83
137 Alleman Saar 01:20:48 70.48
138 Castelein Matthias 01:20:52 70.44
139 Vanhecke Stan 01:20:59 70.34
140 Lafaut Kimberly 01:21:07 70.27
141 Moerman Nathalie 01:21:20 70.12
142 Schelstraete Olivier 01:21:24 69.98
143 Deferme Bart 01:21:32 69.86
144 Struyve Steven 01:21:32 69.86
145 Dael Koen 01:21:35 69.82
146 Vankeirsbilck Fien 01:21:38 69.92
147 Sercu Jerina 01:21:45 69.84
148 Bultynck Angelito 01:21:50 69.60
149 Vandepitte Josefien 01:21:58 69.70
150 Vlaemynck An 01:22:00 69.68
151 Vandeputte Simon 01:22:10 69.31
152 Van Poucke Ruben 01:22:15 69.24
153 Decommer Sandy 01:22:22 69.14
154 Geuns Isolde 01:22:30 69.35
155 Depoortere Dries 01:22:32 69.00
156 De Roy Britt 01:22:50 69.12
157 Dejonghe Kaatje 01:22:58 69.04
158 Bottecaer Bram 01:23:00 68.59
159 De Weerdt Ramses 01:23:03 68.55
160 Verlinde Robin 01:23:17 68.35
161 Roose Flore 01:23:18 68.81
162 Coussement Louis 01:23:24 68.25
163 Vermeersch Maïté 01:23:25 68.74
164 Beys Jan 01:23:28 68.19
165 Verstraete Stefaan 01:23:39 68.03
166 Jacobs Sophie 01:23:42 68.55
167 Vandendriessche Delphine 01:23:44 68.53
168 Van Zandycke Lies 01:23:49 68.47
169 Puype Davy 01:23:58 67.76
170 Baert Wouter 01:24:08 67.61
171 Vranken Evelyn 01:24:15 68.18
172 Brusselle Charlotte 01:24:17 68.16
173 Behaeghe Lodewijk 01:24:39 67.16
174 Cracco Dries 01:24:40 67.15
175 Hendrikx Jasper 01:24:45 67.08
176 Geerardyn Gino 01:25:06 66.78
177 Vanhaecke Louis 01:25:26 66.49
178 Decuypere Lore 01:25:27 67.38
179 Aerts Ilse 01:25:43 67.21
180 Vervaeck Michiel 01:26:01 65.98
181 Hollevoet Steven 01:26:05 65.92
182 Vulsteke Chantal 01:26:36 66.62
183 Lievens Jeremy 01:26:38 65.45
184 Schoutteet Annelies 01:26:39 66.59
185 Hemelaere Harold 01:26:52 65.25
186 Platteeuw Xerxes 01:26:54 65.22
187 Vandaele Stijn 01:26:54 65.22
188 Bortier Jurgen 01:27:07 65.03
189 Daeninck Jolien 01:27:13 66.21
190 Veracx Aline 01:27:16 66.18
191 Spaas Maxime 01:27:22 64.81
192 Vanblaere Harmke 01:27:30 66.02
193 Lafosse Karel 01:28:05 64.19
194 Van Damme Olivier 01:28:08 64.15
195 verlinde lindsay 01:28:15 65.52
196 Kinds Ben 01:28:16 64.04
197 Van Ryssel Pedro 01:28:18 64.01
198 Mottrie Nicolas 01:28:27 63.88
199 De Pauw Charlotte 01:28:42 65.22
200 Vandenbulcke Emmy 01:28:58 65.05
201 Vandekerckhove Bruno 01:29:18 63.14
202 Lootens Tanya 01:29:24 64.76
203 Cole Michael 01:29:30 62.97
204 Reyntjens Alexander 01:29:59 62.55
205 Cappelle Sabine 01:30:02 64.34
206 Deckmyn Rudy 01:30:13 62.35
207 Myny Dries 01:30:37 62.00
208 Verstrynge Katrien 01:31:08 63.60
209 Soenen Craig 01:31:27 61.28
210 Notredame Filip 01:31:32 61.21
211 Reynaert Matthias 01:32:02 60.78
212 Dockers Sanne 01:32:10 62.92
213 Dejonghe Arne 01:32:39 60.24
214 Deforche Maxime 01:33:02 59.91
215 Bostyn Julie 01:33:03 62.33
216 Vandenbunder MichÈle 01:33:15 62.20
217 Vanneste Heidi 01:33:26 62.08
218 Rondelez Tom 01:33:29 59.52
219 Vangheluwe Virginie 01:33:46 61.85
220 Cornillie Bieke 01:34:00 61.70
221 Caviggia Alessandro 01:34:49 58.37
222 Van Hoe Livio 01:35:01 58.20
223 Tanghe Dimitrie 01:35:07 58.11
224 Tieleman Ann 01:35:53 60.45
225 Govaert Silke 01:35:54 60.44
226 De Marez Steven 01:36:02 57.32
227 Robbe Annemarie 01:36:12 60.24
228 Vandemoortele Natalie 01:36:42 59.90
229 Decaluwe StÉphanie 01:38:11 58.92
230 Declercq Koen 01:38:46 54.95
231 Vanderstichele Hadewych 01:39:07 58.30
232 Harri Kristof 01:39:30 54.32
233 Van den Hecke Sandra 01:41:29 56.72
234 Rommelaere Marieke 01:42:34 56.00
235 Verstraete Brecht 01:42:40 51.58
236 Vanneste Justine 01:44:28 54.74
237 Vandecasteele Jolien 01:45:44 53.90
238 Vanden Bulcke Frederique 01:45:45 53.88
239 Vervoort Yves 01:47:23 47.50
240 Wensch Stefaan 01:48:20 46.68
241 Mestdach Charlotte 01:49:16 51.55
242 Stragier Martijn 01:51:15 44.16
243 Ugille Maaike 01:57:54 45.81
244 Deroo Johan 02:02:15 34.14
245 Durnez Joyce 02:13:31 34.92

Reacties

  • Nog geen reacties beschikbaar